Regional Weather Roundup
Issued by NWS

Home | Current Version | Previous Version | Text Only | Print | Product List | Glossary Off
Versions: 1 2 3 4 5 6 7 8 9 10 11 12 13 14 15 16 17 18 19 20 21 22 23 24 25 26 27 28 29 30 31 32 33 34 35 36 37 38 39 40 41 42 43 44 45 46 47 48 49 50

000
ASUS45 KBOI 191910
RWRID
WEATHER ROUNDUP FOR IDAHO
NATIONAL WEATHER SERVICE BOISE ID
1200 PM MST FRI DEC 19 2014

NOTE: "FAIR" INDICATES FEW OR NO CLOUDS BELOW 12000 FEET
WITH NO SIGNIFICANT WEATHER AND/OR OBSTRUCTIONS TO VISIBILITY

IDZ012-014-192000-
SOUTHWEST IDAHO


CITY           SKY/WX    TMP DP  RH WIND       PRES   REMARKS
BOISE          LGT RAIN  42  37  82 SE12      30.06F
CALDWELL       CLOUDY    41  34  75 NE12      30.06F
MOUNTAIN HOME  LGT RAIN  39  36  88 SE14      30.08S WCI  31
$$

IDZ016-017-192000-
SOUTHCENTRAL IDAHO


CITY           SKY/WX    TMP DP  RH WIND       PRES   REMARKS
BURLEY         CLOUDY    43  27  53 S21G28    30.06F
JEROME         CLOUDY    43  30  60 MISG      30.07F
TWIN FALLS     CLOUDY    47  29  49 S14       30.06F
$$

IDZ019>023-192000-
SOUTHEAST IDAHO


CITY           SKY/WX    TMP DP  RH WIND       PRES   REMARKS
IDAHO FALLS    CLOUDY    36  31  82 SW3       30.10F
POCATELLO      CLOUDY    41  29  62 S16G25    30.09F
REXBURG        CLOUDY    33  31  92 CALM      30.11F
$$

IDZ006-010-011-018-031-032-192000-
CENTRAL IDAHO MOUNTAINS


CITY           SKY/WX    TMP DP  RH WIND       PRES   REMARKS
MCCALL         LGT SNOW  33  31  92 SE9       29.97F VSB 3/4 WCI  25
HAILEY         LGT SNOW  34  32  93 CALM      30.09F
STANLEY          N/A     35  25  66 SE13G21   29.98F WCI  26
SALMON         CLOUDY    34  25  69 N3        29.99F
CHALLIS        CLOUDY    30  26  85 NE3       30.00F
$$

IDZ002-004-006-007-026-192000-
NORTHERN IDAHO


CITY           SKY/WX    TMP DP  RH WIND       PRES   REMARKS
LEWISTON       LGT RAIN  42  41  96 NE6       29.96R
LOWELL           N/A     38  37  97 CALM      30.01R
COEUR D`ALENE  CLOUDY    39  36  87 S12       29.89S WCI  32
MULLAN PASS    SNOW      32  29  88 VRB5      29.83F VSB 1/4 WCI  27
$$



USA.gov is the U.S. government's official web portal to all federal, state and local government web resources and services.